Orbital Elements at Epoch 2459200.5 (2020-Dec-17.0) TDB
Reference: JPL 35 (heliocentric ecliptic J2000)
Element | Value | Uncertainty (1-sigma) | Units |
e | .1121240904675787 | 1.7734e-08 | |
a | 2.400708344047081 | 7.2932e-09 | au |
q | 2.131531104492876 | 4.5468e-08 | au |
i | 5.963037707549266 | 8.2388e-07 | deg |
node | 168.0067083122741 | 1.2584e-05 | deg |
peri | 27.56037128154787 | 1.2815e-05 | deg |
M | 34.36278244934435 | 1.1436e-05 | deg |
tp | 2459070.813923434258 (2020-Aug-09.31392343) | 4.2962e-05 | TDB |
period | 1358.64980178745 3.72 | 6.1912e-06 1.695e-08 | d yr |
n | .264968941611283 | 1.2074e-09 | deg/d |
Q | 2.669885583601287 | 8.1109e-09 | au |
|
| | Orbit Determination Parameters
Additional Information
|